,,Stat6,,Stat2,,Stat8,,Stat9,,Stat10,,Wind1,,Wind1,
time,status,PA1M_AVG,status,PR1M_SUM,status,RH1M_AVG,status,SR1M_AVG,status,TA1M_AVG,status,W1dAve1m,status,W1sAve1m,
2006-03-12, 00:00:00,VALID,917.097,VALID,0,VALID,99.765,VALID,-0.0679233,VALID,20.9395,VALID,105,VALID,0.326601,
2006-03-12, 00:01:00,VALID,917.085,VALID,0,VALID,99.9644,VALID,-0.0509425,VALID,20.956,VALID,105,VALID,0.187863,
2006-03-12, 00:02:00,VALID,917.061,VALID,0,VALID,99.9504,VALID,-0.0169808,VALID,20.9724,VALID,105,VALID,0,
2006-03-12, 00:03:00,VALID,917.025,VALID,0,VALID,99.8998,VALID,-0.0339617,VALID,20.9662,VALID,105,VALID,0,
2006-03-12, 00:04:00,VALID,916.983,VALID,0,VALID,99.9494,VALID,-0.0339617,VALID,20.9791,VALID,105,VALID,0,
2006-03-12, 00:05:00,VALID,916.953,VALID,0,VALID,99.8998,VALID,-0.0679233,VALID,20.9788,VALID,105,VALID,0,
2006-03-12, 00:06:00,VALID,916.928,VALID,0,VALID,99.8082,VALID,-0.0679233,VALID,20.9692,VALID,105,VALID,0.012429,
2006-03-12, 00:07:00,VALID,916.898,VALID,0,VALID,99.8998,VALID,-0.0169808,VALID,20.9816,VALID,105,VALID,0.0901296,
2006-03-12, 00:08:00,VALID,916.869,VALID,0,VALID,99.9647,VALID,-0.0169808,VALID,21.0106,VALID,105,VALID,0.212573,
2006-03-12, 00:09:00,VALID,916.868,VALID,0,VALID,99.9367,VALID,-0.0509425,VALID,21.0201,VALID,105,VALID,0.0172697,
2006-03-12, 00:10:00,VALID,916.868,VALID,0,VALID,99.807,VALID,-0.0509425,VALID,21.0112,VALID,105,VALID,0,
2006-03-12, 00:11:00,VALID,916.864,VALID,0,VALID,99.5196,VALID,-0.0169808,VALID,20.9619,VALID,105,VALID,0,
2006-03-12, 00:12:00,VALID,916.861,VALID,0,VALID,99.498,VALID,-0.0169808,VALID,20.946,VALID,105,VALID,0.225836,
2006-03-12, 00:13:00,VALID,916.842,VALID,0,VALID,99.4471,VALID,0,VALID,20.9457,VALID,104,VALID,0.492378,
2006-03-12, 00:14:00,VALID,916.822,VALID,0,VALID,99.1813,VALID,-0.0169808,VALID,20.9261,VALID,65,VALID,0.514323,
2006-03-12, 00:15:00,VALID,916.796,VALID,0,VALID,99.1419,VALID,-0.0169808,VALID,20.911,VALID,55,VALID,0.573864,
2006-03-12, 00:16:00,VALID,916.766,VALID,0,VALID,99.2335,VALID,-0.0509425,VALID,20.8876,VALID,55,VALID,0.501302,
2006-03-12, 00:17:00,VALID,916.723,VALID,0,VALID,99.3339,VALID,-0.0509425,VALID,20.8978,VALID,55,VALID,0.326029,
2006-03-12, 00:18:00,VALID,916.695,VALID,0,VALID,99.409,VALID,0,VALID,20.9102,VALID,55,VALID,0.270508,
2006-03-12, 00:19:00,VALID,916.666,VALID,0,VALID,99.3835,VALID,-0.0339617,VALID,20.9204,VALID,55,VALID,0.371003,
2006-03-12, 00:20:00,VALID,916.646,VALID,0,VALID,99.4929,VALID,-0.0169808,VALID,20.9333,VALID,55,VALID,0.37609,
2006-03-12, 00:21:00,VALID,916.622,VALID,0,VALID,99.6035,VALID,-0.0169808,VALID,20.943,VALID,55,VALID,0.441497,
2006-03-12, 00:22:00,VALID,916.616,VALID,0,VALID,99.6671,VALID,0,VALID,20.9525,VALID,55,VALID,0.278773,
2006-03-12, 00:23:00,VALID,916.61,VALID,0,VALID,99.6086,VALID,-0.0679233,VALID,20.9495,VALID,55,VALID,0.3125,
2006-03-12, 00:24:00,VALID,916.611,VALID,0,VALID,99.5616,VALID,-0.0339617,VALID,20.9595,VALID,55,VALID,0.256177,
2006-03-12, 00:25:00,VALID,916.6,VALID,0,VALID,99.517,VALID,-0.0339617,VALID,20.9527,VALID,55,VALID,0.269627,
2006-03-12, 00:26:00,VALID,916.616,VALID,0,VALID,99.6239,VALID,-0.0509425,VALID,20.9619,VALID,53,VALID,0.363186,
2006-03-12, 00:27:00,VALID,916.607,VALID,0,VALID,99.5768,VALID,-0.0169808,VALID,20.9818,VALID,42,VALID,0.376272,
2006-03-12, 00:28:00,VALID,916.624,VALID,0,VALID,99.442,VALID,-0.0169808,VALID,20.9716,VALID,42,VALID,0.510817,
2006-03-12, 00:29:00,VALID,916.627,VALID,0,VALID,99.559,VALID,-0.0679233,VALID,21.0015,VALID,42,VALID,0.412733,
2006-03-12, 00:30:00,VALID,916.638,VALID,0,VALID,99.5755,VALID,-0.0339617,VALID,21.0333,VALID,40,VALID,0.523247,
2006-03-12, 00:31:00,VALID,916.632,VALID,0,VALID,99.4242,VALID,-0.0169808,VALID,21.0494,VALID,34,VALID,0.475472,
2006-03-12, 00:32:00,VALID,916.646,VALID,0,VALID,99.3632,VALID,-0.0509425,VALID,21.0823,VALID,34,VALID,0.420545,
2006-03-12, 00:33:00,VALID,916.647,VALID,0,VALID,99.3047,VALID,-0.0339617,VALID,21.0982,VALID,34,VALID,0.338986,
2006-03-12, 00:34:00,VALID,916.642,VALID,0,VALID,99.1445,VALID,-0.0169808,VALID,21.1146,VALID,34,VALID,0.367914,
2006-03-12, 00:35:00,VALID,916.64,VALID,0,VALID,99.0046,VALID,-0.0679233,VALID,21.1178,VALID,32,VALID,0.396151,
2006-03-12, 00:36:00,VALID,916.641,VALID,0,VALID,98.9041,VALID,-0.0509425,VALID,21.1141,VALID,25,VALID,0.431402,
2006-03-12, 00:37:00,VALID,916.637,VALID,0,VALID,98.8494,VALID,0,VALID,21.1014,VALID,25,VALID,0.333398,
2006-03-12, 00:38:00,VALID,916.637,VALID,0,VALID,98.8291,VALID,-0.0169808,VALID,21.0914,VALID,22,VALID,0.511523,
2006-03-12, 00:39:00,VALID,916.632,VALID,0,VALID,98.9334,VALID,0.0849042,VALID,21.0804,VALID,22,VALID,0.363948,
2006-03-12, 00:40:00,VALID,916.635,VALID,0,VALID,99.0733,VALID,0.0849042,VALID,21.0864,VALID,18,VALID,0.444931,
2006-03-12, 00:41:00,VALID,916.627,VALID,0,VALID,99.0923,VALID,0.0679233,VALID,21.071,VALID,5,VALID,0.632626,
2006-03-12, 00:42:00,VALID,916.625,VALID,0,VALID,99.2373,VALID,0.0509425,VALID,21.0648,VALID,346,VALID,0.646205,
2006-03-12, 00:43:00,VALID,916.616,VALID,0,VALID,99.4115,VALID,0.0679233,VALID,21.0446,VALID,339,VALID,0.829055,
2006-03-12, 00:44:00,VALID,916.601,VALID,0,VALID,99.5997,VALID,0.0679233,VALID,21.0511,VALID,354,VALID,0.482922,
2006-03-12, 00:45:00,VALID,916.591,VALID,0,VALID,99.7548,VALID,0.0679233,VALID,21.0643,VALID,9,VALID,0.534108,
2006-03-12, 00:46:00,VALID,916.586,VALID,0,VALID,99.7523,VALID,0.0339617,VALID,21.074,VALID,359,VALID,0.867188,
2006-03-12, 00:47:00,VALID,916.575,VALID,0,VALID,99.7548,VALID,0.0339617,VALID,21.074,VALID,2,VALID,0.534722,
2006-03-12, 00:48:00,VALID,916.573,VALID,0,VALID,99.7943,VALID,0.0679233,VALID,21.0578,VALID,347,VALID,0.521341,
2006-03-12, 00:49:00,VALID,916.576,VALID,0,VALID,99.929,VALID,0.0339617,VALID,21.0637,VALID,345,VALID,0.0496652,
2006-03-12, 00:50:00,VALID,916.592,VALID,0,VALID,99.9644,VALID,0.0509425,VALID,21.0769,VALID,348,VALID,0.191315,
2006-03-12, 00:51:00,VALID,916.598,VALID,0,VALID,99.9667,VALID,0.0679233,VALID,21.0866,VALID,345,VALID,0.653832,
2006-03-12, 00:52:00,VALID,916.61,VALID,0,VALID,99.8909,VALID,0.0849042,VALID,21.074,VALID,336,VALID,0.453488,
2006-03-12, 00:53:00,VALID,916.601,VALID,0,VALID,99.9341,VALID,0.0169808,VALID,21.0583,VALID,318,VALID,0.653773,
2006-03-12, 00:54:00,VALID,916.598,VALID,0,VALID,99.9954,VALID,-0.0339617,VALID,21.0465,VALID,357,VALID,0.408975,
2006-03-12, 00:55:00,VALID,916.602,VALID,0,VALID,100,VALID,-0.0339617,VALID,21.0656,VALID,1,VALID,0.695513,
2006-03-12, 00:56:00,VALID,916.6,VALID,0,VALID,100,VALID,0,VALID,21.082,VALID,353,VALID,0.911345,
2006-03-12, 00:57:00,VALID,916.603,VALID,0,VALID,100,VALID,0,VALID,21.0459,VALID,316,VALID,0.724276,
2006-03-12, 00:58:00,VALID,916.597,VALID,0,VALID,100,VALID,0,VALID,21.0427,VALID,323,VALID,0.461301,
2006-03-12, 00:59:00,VALID,916.606,VALID,0,VALID,100,VALID,-0.0339617,VALID,21.0693,VALID,349,VALID,0.550174,
2006-03-12, 01:00:00,VALID,916.616,VALID,0,VALID,100,VALID,0,VALID,21.0397,VALID,353,VALID,0.502663,
2006-03-12, 01:01:00,VALID,916.625,VALID,0,VALID,100,VALID,-0.0169808,VALID,21.0408,VALID,350,VALID,0.527521,
2006-03-12, 01:02:00,VALID,916.635,VALID,0,VALID,100,VALID,0,VALID,21.0106,VALID,344,VALID,0.308408,
2006-03-12, 01:03:00,VALID,916.639,VALID,0,VALID,100,VALID,-0.0169808,VALID,20.9947,VALID,344,VALID,0.063058,
2006-03-12, 01:04:00,VALID,916.636,VALID,0,VALID,100,VALID,-0.0679233,VALID,20.9945,VALID,345,VALID,0.0440341,
2006-03-12, 01:05:00,VALID,916.613,VALID,0,VALID,100,VALID,-0.0169808,VALID,21.0044,VALID,347,VALID,0.276634,
2006-03-12, 01:06:00,VALID,916.61,VALID,0,VALID,100,VALID,-0.0339617,VALID,21.0144,VALID,347,VALID,0.413872,
2006-03-12, 01:07:00,VALID,916.601,VALID,0,VALID,100,VALID,-0.0169808,VALID,21.0203,VALID,347,VALID,0.328711,
2006-03-12, 01:08:00,VALID,916.586,VALID,0,VALID,100,VALID,0,VALID,21.0271,VALID,347,VALID,0.395198,
2006-03-12, 01:09:00,VALID,916.57,VALID,0,VALID,100,VALID,0,VALID,21.0139,VALID,347,VALID,0.161882,
2006-03-12, 01:10:00,VALID,916.554,VALID,0,VALID,100,VALID,0.0339617,VALID,20.994,VALID,347,VALID,0,
2006-03-12, 01:11:00,VALID,916.55,VALID,0,VALID,100,VALID,0,VALID,21.0112,VALID,347,VALID,0.00114329,
2006-03-12, 01:12:00,VALID,916.519,VALID,0,VALID,100,VALID,-0.0169808,VALID,21.0238,VALID,347,VALID,0.00872093,
2006-03-12, 01:13:00,VALID,916.511,VALID,0,VALID,100,VALID,-0.0169808,VALID,21.0333,VALID,347,VALID,0,
2006-03-12, 01:14:00,VALID,916.48,VALID,0,VALID,100,VALID,-0.0169808,VALID,21.0303,VALID,347,VALID,0,
2006-03-12, 01:15:00,VALID,916.465,VALID,0,VALID,100,VALID,0,VALID,21.0174,VALID,347,VALID,0,
2006-03-12, 01:16:00,VALID,916.457,VALID,0,VALID,100,VALID,-0.0169808,VALID,21.0136,VALID,347,VALID,0,
2006-03-12, 01:17:00,VALID,916.466,VALID,0,VALID,100,VALID,0,VALID,21.0144,VALID,347,VALID,0,
2006-03-12, 01:18:00,VALID,916.466,VALID,0,VALID,100,VALID,-0.0339617,VALID,21.0007,VALID,347,VALID,0,
2006-03-12, 01:19:00,VALID,916.474,VALID,0,VALID,100,VALID,0,VALID,20.9974,VALID,353,VALID,0.160547,
2006-03-12, 01:20:00,VALID,916.487,VALID,0,VALID,100,VALID,0.0339617,VALID,20.9843,VALID,11,VALID,0.224201,
2006-03-12, 01:21:00,VALID,916.474,VALID,0,VALID,100,VALID,0.0169808,VALID,20.9878,VALID,11,VALID,0.139881,
2006-03-12, 01:22:00,VALID,916.479,VALID,0,VALID,100,VALID,0,VALID,20.9624,VALID,107,VALID,0.39881,
2006-03-12, 01:23:00,VALID,916.465,VALID,0,VALID,100,VALID,0,VALID,20.9428,VALID,141,VALID,0.483103,
2006-03-12, 01:24:00,VALID,916.442,VALID,0,VALID,100,VALID,0,VALID,20.9234,VALID,143,VALID,0.816692,
2006-03-12, 01:25:00,VALID,916.43,VALID,0,VALID,100,VALID,0,VALID,20.901,VALID,144,VALID,0.746366,
2006-03-12, 01:26:00,VALID,916.411,VALID,0,VALID,100,VALID,-0.0169808,VALID,20.8647,VALID,153,VALID,0.717226,
2006-03-12, 01:27:00,VALID,916.399,VALID,0,VALID,100,VALID,0,VALID,20.8426,VALID,154,VALID,0.539063,
2006-03-12, 01:28:00,VALID,916.399,VALID,0,VALID,100,VALID,0,VALID,20.8167,VALID,156,VALID,0.772321,
2006-03-12, 01:29:00,VALID,916.391,VALID,0,VALID,100,VALID,0,VALID,20.8035,VALID,155,VALID,0.606399,
2006-03-12, 01:30:00,VALID,916.379,VALID,0,VALID,100,VALID,0.0169808,VALID,20.7909,VALID,128,VALID,0.511009,
2006-03-12, 01:31:00,VALID,916.384,VALID,0,VALID,100,VALID,0.0169808,VALID,20.7911,VALID,128,VALID,0.583576,
2006-03-12, 01:32:00,VALID,916.362,VALID,0,VALID,100,VALID,-0.0169808,VALID,20.7849,VALID,127,VALID,0.218178,
2006-03-12, 01:33:00,VALID,916.362,VALID,0,VALID,100,VALID,0.0339617,VALID,20.7812,VALID,126,VALID,0.40439,
2006-03-12, 01:34:00,VALID,916.339,VALID,0,VALID,100,VALID,0.0169808,VALID,20.779,VALID,126,VALID,0.307465,
2006-03-12, 01:35:00,VALID,916.345,VALID,0,VALID,100,VALID,0,VALID,20.7685,VALID,126,VALID,0.225868,
2006-03-12, 01:36:00,VALID,916.321,VALID,0,VALID,100,VALID,-0.0169808,VALID,20.7586,VALID,126,VALID,0.470703,
2006-03-12, 01:37:00,VALID,916.29,VALID,0,VALID,100,VALID,0,VALID,20.7529,VALID,126,VALID,0.423678,
2006-03-12, 01:38:00,VALID,916.29,VALID,0,VALID,100,VALID,0,VALID,20.7327,VALID,126,VALID,0.356027,
2006-03-12, 01:39:00,VALID,916.257,VALID,0,VALID,100,VALID,-0.0169808,VALID,20.7335,VALID,134,VALID,0.382449,
2006-03-12, 01:40:00,VALID,916.241,VALID,0,VALID,100,VALID,-0.0509425,VALID,20.7268,VALID,155,VALID,0.418241,
2006-03-12, 01:41:00,VALID,916.232,VALID,0,VALID,100,VALID,0,VALID,20.7101,VALID,173,VALID,0.595881,
2006-03-12, 01:42:00,VALID,916.223,VALID,0,VALID,100,VALID,-0.0169808,VALID,20.6977,VALID,173,VALID,0.419513,
2006-03-12, 01:43:00,VALID,916.213,VALID,0,VALID,100,VALID,0,VALID,20.688,VALID,172,VALID,0.72619,
2006-03-12, 01:44:00,VALID,916.221,VALID,0,VALID,100,VALID,-0.0509425,VALID,20.6756,VALID,172,VALID,0.575195,
2006-03-12, 01:45:00,VALID,916.221,VALID,0,VALID,100,VALID,-0.0169808,VALID,20.6629,VALID,175,VALID,0.546148,
2006-03-12, 01:46:00,VALID,916.219,VALID,0,VALID,100,VALID,-0.0339617,VALID,20.646,VALID,185,VALID,0.544876,
2006-03-12, 01:47:00,VALID,916.225,VALID,0,VALID,100,VALID,-0.0169808,VALID,20.6656,VALID,183,VALID,0.413491,
2006-03-12, 01:48:00,VALID,916.221,VALID,0,VALID,100,VALID,-0.0339617,VALID,20.6723,VALID,181,VALID,0.323153,
2006-03-12, 01:49:00,VALID,916.225,VALID,0,VALID,100,VALID,-0.0339617,VALID,20.6683,VALID,181,VALID,0.170922,
2006-03-12, 01:50:00,VALID,916.216,VALID,0,VALID,100,VALID,-0.0169808,VALID,20.6882,VALID,181,VALID,0,
2006-03-12, 01:51:00,VALID,916.211,VALID,0,VALID,100,VALID,-0.0509425,VALID,20.6882,VALID,181,VALID,0,
2006-03-12, 01:52:00,VALID,916.197,VALID,0,VALID,100,VALID,-0.0679233,VALID,20.6987,VALID,181,VALID,0.209449,
2006-03-12, 01:53:00,VALID,916.165,VALID,0,VALID,100,VALID,0,VALID,20.6912,VALID,181,VALID,0.205983,
2006-03-12, 01:54:00,VALID,916.155,VALID,0,VALID,100,VALID,0,VALID,20.7101,VALID,181,VALID,0.106399,
2006-03-12, 01:55:00,VALID,916.143,VALID,0,VALID,100,VALID,0,VALID,20.7039,VALID,181,VALID,0,
2006-03-12, 01:56:00,VALID,916.134,VALID,0,VALID,100,VALID,0,VALID,20.6845,VALID,181,VALID,0.00111607,
2006-03-12, 01:57:00,VALID,916.116,VALID,0,VALID,100,VALID,0,VALID,20.6748,VALID,181,VALID,0,
2006-03-12, 01:58:00,VALID,916.105,VALID,0,VALID,100,VALID,0.0169808,VALID,20.678,VALID,181,VALID,0,
2006-03-12, 01:59:00,VALID,916.101,VALID,0,VALID,100,VALID,0,VALID,20.6648,VALID,181,VALID,0,
2006-03-12, 02:00:00,VALID,916.089,VALID,0,VALID,100,VALID,0,VALID,20.6751,VALID,181,VALID,0,
2006-03-12, 02:01:00,VALID,916.085,VALID,0,VALID,100,VALID,0,VALID,20.6778,VALID,181,VALID,0,
2006-03-12, 02:02:00,VALID,916.073,VALID,0,VALID,100,VALID,0,VALID,20.6912,VALID,181,VALID,0,
2006-03-12, 02:03:00,VALID,916.062,VALID,0,VALID,100,VALID,-0.0169808,VALID,20.6848,VALID,181,VALID,0.337612,
2006-03-12, 02:04:00,VALID,916.049,VALID,0,VALID,100,VALID,0,VALID,20.6778,VALID,244,VALID,0.685192,
2006-03-12, 02:05:00,VALID,916.036,VALID,0,VALID,100,VALID,0,VALID,20.6616,VALID,13,VALID,0.717882,
2006-03-12, 02:06:00,VALID,916.017,VALID,0,VALID,100,VALID,0.0339617,VALID,20.6681,VALID,22,VALID,0.566692,
2006-03-12, 02:07:00,VALID,916.008,VALID,0,VALID,100,VALID,0.0509425,VALID,20.6686,VALID,20,VALID,0.726004,
2006-03-12, 02:08:00,VALID,915.98,VALID,0,VALID,100,VALID,0.0339617,VALID,20.6258,VALID,20,VALID,0.787946,
2006-03-12, 02:09:00,VALID,915.958,VALID,0,VALID,100,VALID,0,VALID,20.6231,VALID,19,VALID,0.575838,
2006-03-12, 02:10:00,VALID,915.947,VALID,0,VALID,100,VALID,0,VALID,20.6137,VALID,18,VALID,0.0790334,
2006-03-12, 02:11:00,VALID,915.931,VALID,0,VALID,100,VALID,0,VALID,20.6263,VALID,18,VALID,0.121003,
2006-03-12, 02:12:00,VALID,915.936,VALID,0,VALID,100,VALID,0.0339617,VALID,20.6323,VALID,18,VALID,0.492551,
2006-03-12, 02:13:00,VALID,915.936,VALID,0,VALID,100,VALID,0.0169808,VALID,20.6355,VALID,18,VALID,0.345313,
2006-03-12, 02:14:00,VALID,915.941,VALID,0,VALID,100,VALID,-0.0169808,VALID,20.6621,VALID,17,VALID,0.34468,
2006-03-12, 02:15:00,VALID,915.936,VALID,0,VALID,100,VALID,0,VALID,20.6842,VALID,17,VALID,0.137195,
2006-03-12, 02:16:00,VALID,915.937,VALID,0,VALID,100,VALID,-0.0169808,VALID,20.6939,VALID,17,VALID,0.374818,
2006-03-12, 02:17:00,VALID,915.933,VALID,0,VALID,100,VALID,0,VALID,20.6974,VALID,17,VALID,0.40997,
2006-03-12, 02:18:00,VALID,915.924,VALID,0,VALID,100,VALID,0.0169808,VALID,20.7133,VALID,17,VALID,0.246007,
2006-03-12, 02:19:00,VALID,915.892,VALID,0,VALID,100,VALID,0,VALID,20.7171,VALID,17,VALID,0.833705,
2006-03-12, 02:20:00,VALID,915.875,VALID,0,VALID,100,VALID,0.0169808,VALID,20.7203,VALID,16,VALID,0.702363,
2006-03-12, 02:21:00,VALID,915.852,VALID,0,VALID,100,VALID,0,VALID,20.7141,VALID,16,VALID,0.487699,
2006-03-12, 02:22:00,VALID,915.836,VALID,0,VALID,100,VALID,0,VALID,20.7069,VALID,16,VALID,0.0872093,
2006-03-12, 02:23:00,VALID,915.808,VALID,0,VALID,100,VALID,0.0169808,VALID,20.7367,VALID,16,VALID,0,
2006-03-12, 02:24:00,VALID,915.795,VALID,0,VALID,100,VALID,0.0339617,VALID,20.7494,VALID,16,VALID,0,
2006-03-12, 02:25:00,VALID,915.771,VALID,0,VALID,100,VALID,0,VALID,20.7486,VALID,16,VALID,0,
2006-03-12, 02:26:00,VALID,915.773,VALID,0,VALID,100,VALID,0,VALID,20.7586,VALID,16,VALID,0,
2006-03-12, 02:27:00,VALID,915.769,VALID,0,VALID,100,VALID,0.0169808,VALID,20.7623,VALID,16,VALID,0.00476372,
2006-03-12, 02:28:00,VALID,915.76,VALID,0,VALID,100,VALID,0.0339617,VALID,20.7421,VALID,24,VALID,0.425223,
2006-03-12, 02:29:00,VALID,915.757,VALID,0,VALID,100,VALID,0.0169808,VALID,20.716,VALID,36,VALID,0.268924,
2006-03-12, 02:30:00,VALID,915.769,VALID,0,VALID,100,VALID,0.0339617,VALID,20.6972,VALID,34,VALID,0.365327,
2006-03-12, 02:31:00,VALID,915.764,VALID,0,VALID,100,VALID,0.0339617,VALID,20.7103,VALID,29,VALID,0.193359,
2006-03-12, 02:32:00,VALID,915.768,VALID,0,VALID,100,VALID,0,VALID,20.7233,VALID,29,VALID,0.204215,
2006-03-12, 02:33:00,VALID,915.771,VALID,0,VALID,100,VALID,0,VALID,20.7039,VALID,29,VALID,0.100142,
2006-03-12, 02:34:00,VALID,915.781,VALID,0,VALID,100,VALID,0.0339617,VALID,20.7047,VALID,29,VALID,0,
2006-03-12, 02:35:00,VALID,915.764,VALID,0,VALID,100,VALID,0.0509425,VALID,20.7098,VALID,29,VALID,0.0984375,
2006-03-12, 02:36:00,VALID,915.769,VALID,0,VALID,100,VALID,0.0509425,VALID,20.7128,VALID,29,VALID,0,
2006-03-12, 02:37:00,VALID,915.756,VALID,0,VALID,100,VALID,0.0169808,VALID,20.7295,VALID,29,VALID,0,
2006-03-12, 02:38:00,VALID,915.739,VALID,0,VALID,100,VALID,-0.0339617,VALID,20.7591,VALID,29,VALID,0,
2006-03-12, 02:39:00,VALID,915.728,VALID,0,VALID,100,VALID,-0.0849042,VALID,20.7636,VALID,29,VALID,0,
2006-03-12, 02:40:00,VALID,915.696,VALID,0,VALID,100,VALID,-0.101885,VALID,20.7504,VALID,29,VALID,0,
2006-03-12, 02:41:00,VALID,915.66,VALID,0,VALID,100,VALID,-0.101885,VALID,20.7472,VALID,29,VALID,0,
2006-03-12, 02:42:00,VALID,915.662,VALID,0,VALID,100,VALID,-0.101885,VALID,20.7604,VALID,29,VALID,0,
2006-03-12, 02:43:00,VALID,915.636,VALID,0,VALID,100,VALID,-0.101885,VALID,20.7534,VALID,29,VALID,0,
2006-03-12, 02:44:00,VALID,915.621,VALID,0,VALID,100,VALID,-0.101885,VALID,20.7601,VALID,29,VALID,0.198583,
2006-03-12, 02:45:00,VALID,915.616,VALID,0,VALID,100,VALID,-0.118866,VALID,20.7601,VALID,29,VALID,0.00334821,
2006-03-12, 02:46:00,VALID,915.611,VALID,0,VALID,100,VALID,-0.0679233,VALID,20.7698,VALID,29,VALID,0,
2006-03-12, 02:47:00,VALID,915.59,VALID,0,VALID,100,VALID,-0.101885,VALID,20.7666,VALID,29,VALID,0,
2006-03-12, 02:48:00,VALID,915.597,VALID,0,VALID,100,VALID,-0.101885,VALID,20.7731,VALID,29,VALID,0,
2006-03-12, 02:49:00,VALID,915.598,VALID,0,VALID,100,VALID,-0.101885,VALID,20.7865,VALID,30,VALID,0,
2006-03-12, 02:50:00,VALID,915.607,VALID,0,VALID,100,VALID,-0.101885,VALID,20.776,VALID,30,VALID,0,
2006-03-12, 02:51:00,VALID,915.625,VALID,0,VALID,100,VALID,-0.135847,VALID,20.783,VALID,30,VALID,0,
2006-03-12, 02:52:00,VALID,915.642,VALID,0,VALID,100,VALID,-0.101885,VALID,20.783,VALID,30,VALID,0.121761,
2006-03-12, 02:53:00,VALID,915.663,VALID,0,VALID,100,VALID,-0.0849042,VALID,20.7954,VALID,30,VALID,0.40067,
2006-03-12, 02:54:00,VALID,915.681,VALID,0,VALID,100,VALID,0,VALID,20.8108,VALID,30,VALID,0.311166,
2006-03-12, 02:55:00,VALID,915.684,VALID,0,VALID,100,VALID,0,VALID,20.8237,VALID,30,VALID,0.0234375,
2006-03-12, 02:56:00,VALID,915.696,VALID,0,VALID,100,VALID,0,VALID,20.8262,VALID,30,VALID,0.215732,
2006-03-12, 02:57:00,VALID,915.697,VALID,0,VALID,100,VALID,-0.0169808,VALID,20.8391,VALID,30,VALID,0.361852,
2006-03-12, 02:58:00,VALID,915.695,VALID,0,VALID,100,VALID,0,VALID,20.8488,VALID,29,VALID,0.359747,
2006-03-12, 02:59:00,VALID,915.685,VALID,0,VALID,100,VALID,0,VALID,20.8555,VALID,29,VALID,0.112645,
2006-03-12, 03:00:00,VALID,915.656,VALID,0,VALID,100,VALID,0,VALID,20.852,VALID,29,VALID,0,
2006-03-12, 03:01:00,VALID,915.626,VALID,0,VALID,100,VALID,0,VALID,20.8587,VALID,29,VALID,0.0474466,
2006-03-12, 03:02:00,VALID,915.599,VALID,0,VALID,100,VALID,-0.0169808,VALID,20.8714,VALID,29,VALID,0.13681,
2006-03-12, 03:03:00,VALID,915.596,VALID,0,VALID,100,VALID,0,VALID,20.8851,VALID,29,VALID,0.185268,
2006-03-12, 03:04:00,VALID,915.572,VALID,0,VALID,100,VALID,-0.0169808,VALID,20.8781,VALID,29,VALID,0.141959,
2006-03-12, 03:05:00,VALID,915.578,VALID,0,VALID,100,VALID,0,VALID,20.8843,VALID,29,VALID,0.10191,
2006-03-12, 03:06:00,VALID,915.567,VALID,0,VALID,100,VALID,0,VALID,20.8779,VALID,29,VALID,0.218564,
2006-03-12, 03:07:00,VALID,915.57,VALID,0,VALID,100,VALID,0,VALID,20.8978,VALID,29,VALID,0.138021,
2006-03-12, 03:08:00,VALID,915.563,VALID,0,VALID,100,VALID,0,VALID,20.8846,VALID,29,VALID,0.104759,
2006-03-12, 03:09:00,VALID,915.567,VALID,0,VALID,100,VALID,0.0169808,VALID,20.8811,VALID,29,VALID,0.0183594,
2006-03-12, 03:10:00,VALID,915.553,VALID,0,VALID,100,VALID,0,VALID,20.8841,VALID,29,VALID,0,
2006-03-12, 03:11:00,VALID,915.556,VALID,0,VALID,100,VALID,-0.0509425,VALID,20.8814,VALID,29,VALID,0,
2006-03-12, 03:12:00,VALID,915.576,VALID,0,VALID,100,VALID,0.0169808,VALID,20.8779,VALID,29,VALID,0,
2006-03-12, 03:13:00,VALID,915.591,VALID,0,VALID,100,VALID,0,VALID,20.8291,VALID,29,VALID,0,
2006-03-12, 03:14:00,VALID,915.593,VALID,0,VALID,100,VALID,-0.0169808,VALID,20.7876,VALID,29,VALID,0,
2006-03-12, 03:15:00,VALID,915.588,VALID,0,VALID,100,VALID,-0.0169808,VALID,20.7648,VALID,29,VALID,0,
2006-03-12, 03:16:00,VALID,915.577,VALID,0,VALID,100,VALID,-0.0509425,VALID,20.7655,VALID,29,VALID,0,
2006-03-12, 03:17:00,VALID,915.569,VALID,0,VALID,100,VALID,-0.0169808,VALID,20.7491,VALID,29,VALID,0,
2006-03-12, 03:18:00,VALID,915.564,VALID,0,VALID,100,VALID,0,VALID,20.7392,VALID,29,VALID,0,
2006-03-12, 03:19:00,VALID,915.557,VALID,0,VALID,100,VALID,0,VALID,20.7227,VALID,29,VALID,0,
2006-03-12, 03:20:00,VALID,915.552,VALID,0,VALID,100,VALID,0,VALID,20.7165,VALID,29,VALID,0,
2006-03-12, 03:21:00,VALID,915.556,VALID,0,VALID,100,VALID,0,VALID,20.7131,VALID,29,VALID,0,
2006-03-12, 03:22:00,VALID,915.563,VALID,0,VALID,100,VALID,0.0169808,VALID,20.7098,VALID,29,VALID,0,
2006-03-12, 03:23:00,VALID,915.575,VALID,0,VALID,100,VALID,-0.0169808,VALID,20.7006,VALID,33,VALID,0.114826,
2006-03-12, 03:24:00,VALID,915.591,VALID,0,VALID,100,VALID,0,VALID,20.6942,VALID,57,VALID,0.177507,
2006-03-12, 03:25:00,VALID,915.598,VALID,0,VALID,100,VALID,0,VALID,20.684,VALID,118,VALID,0.34561,
2006-03-12, 03:26:00,VALID,915.602,VALID,0,VALID,100,VALID,0,VALID,20.681,VALID,192,VALID,0.183093,
2006-03-12, 03:27:00,VALID,915.618,VALID,0,VALID,100,VALID,0,VALID,20.6678,VALID,192,VALID,0.196555,
2006-03-12, 03:28:00,VALID,915.63,VALID,0,VALID,100,VALID,0,VALID,20.6549,VALID,195,VALID,0.215799,
2006-03-12, 03:29:00,VALID,915.63,VALID,0,VALID,100,VALID,0.0169808,VALID,20.6489,VALID,207,VALID,0.304874,
2006-03-12, 03:30:00,VALID,915.632,VALID,0,VALID,100,VALID,0,VALID,20.6196,VALID,215,VALID,0.45141,
2006-03-12, 03:31:00,VALID,915.604,VALID,0,VALID,100,VALID,0,VALID,20.6002,VALID,223,VALID,0.289253,
2006-03-12, 03:32:00,VALID,915.588,VALID,0,VALID,100,VALID,-0.0169808,VALID,20.5975,VALID,220,VALID,0.0655488,
2006-03-12, 03:33:00,VALID,915.565,VALID,0,VALID,100,VALID,0,VALID,20.5873,VALID,211,VALID,0.273438,
2006-03-12, 03:34:00,VALID,915.537,VALID,0,VALID,100,VALID,0,VALID,20.5943,VALID,198,VALID,0.24201,
2006-03-12, 03:35:00,VALID,915.526,VALID,0,VALID,100,VALID,-0.0339617,VALID,20.5773,VALID,164,VALID,0.466388,
2006-03-12, 03:36:00,VALID,915.529,VALID,0,VALID,100,VALID,0,VALID,20.5649,VALID,139,VALID,0.543403,
2006-03-12, 03:37:00,VALID,915.507,VALID,0,VALID,100,VALID,0,VALID,20.5219,VALID,137,VALID,0.316315,
2006-03-12, 03:38:00,VALID,915.5,VALID,0,VALID,100,VALID,0,VALID,20.5159,VALID,127,VALID,0.330966,
2006-03-12, 03:39:00,VALID,915.49,VALID,0,VALID,100,VALID,-0.0509425,VALID,20.511,VALID,121,VALID,0.422637,
2006-03-12, 03:40:00,VALID,915.467,VALID,0,VALID,100,VALID,-0.101885,VALID,20.4884,VALID,122,VALID,0.14974,
2006-03-12, 03:41:00,VALID,915.459,VALID,0,VALID,100,VALID,-0.0849042,VALID,20.4951,VALID,117,VALID,0.446875,
2006-03-12, 03:42:00,VALID,915.434,VALID,0,VALID,100,VALID,-0.0679233,VALID,20.4819,VALID,114,VALID,0.34048,
2006-03-12, 03:43:00,VALID,915.426,VALID,0,VALID,100,VALID,-0.118866,VALID,20.4695,VALID,113,VALID,0.00838415,
2006-03-12, 03:44:00,VALID,915.407,VALID,0,VALID,100,VALID,-0.118866,VALID,20.466,VALID,113,VALID,0.0147758,
2006-03-12, 03:45:00,VALID,915.408,VALID,0,VALID,100,VALID,-0.101885,VALID,20.4892,VALID,113,VALID,0,